#timestamp,LO_Frequency,Hit 
1505412015.9,286046982.3,N
1505412035.7,286046987.1,N
1505412055.6,286046989.0,N
1505412075.4,286046986.0,N
1505412095.2,286046991.0,N
1505412115.1,286046991.6,N
1505412116.0,286046991.6,N
1505412135.8,286046990.1,N
1505412155.6,286046993.8,N
1505412175.4,286046994.1,N
1505412195.3,286046995.5,N
1505412215.1,286046996.7,N
1505412235.8,286046996.2,N
1505412255.7,286046993.3,N
1505412275.5,286046994.2,N
1505412295.3,286046993.9,N
1505412315.2,286046997.6,N
1505412335.9,286047000.8,N
1505412355.7,286047000.4,N
1505412375.6,286047005.7,N
1505412395.4,286047003.2,N
1505412415.2,286047004.2,N
1505412435.0,286047002.9,N
1505412436.0,286047002.9,N
1505412455.8,286047006.9,N
1505412475.6,286047007.3,N
1505412495.4,286047005.6,N
1505412515.3,286047006.8,N
1505412535.1,286047004.7,N
1505412555.8,286047008.0,N
1505412575.7,286047008.7,N
1505412595.5,286047008.1,N
1505412615.3,286047014.0,N
1505412635.2,286047012.5,N
1505412655.9,286047016.5,N
1505412675.7,286047021.6,P
1505412695.6,286047017.4,N
1505412715.4,286047015.3,N
1505412735.2,286047014.0,N
1505412755.1,286047015.1,N
1505412756.0,286047015.1,N
1505412775.8,286047010.4,N
1505412795.6,286047006.6,N
1505412815.5,286047010.1,N
1505412835.3,286047009.8,N
1505412855.1,286047009.6,N
1505412875.8,286047011.5,N
1505412895.7,286047006.7,N
1505412915.5,286047012.0,N
1505412935.3,286047007.4,N
1505412955.2,286047004.8,N
1505412975.9,286047013.0,N
1505412995.7,286047018.6,P
1505413015.6,286047004.5,N
1505413035.4,286047004.2,N
1505413055.2,286047008.9,N
1505413075.1,286047011.6,N
1505413076.0,286047011.6,N
1505413095.8,286047013.8,P
1505413115.6,286046996.6,N
1505413135.5,286046996.0,N
1505413155.3,286047001.0,N
1505413175.1,286046998.3,N
1505413195.9,286047000.7,N
1505413215.7,286046996.6,N
1505413235.5,286046995.8,N
1505413255.4,286046990.7,N
1505413275.2,286046992.9,N
1505413295.0,286046992.1,N
1505413295.9,286046992.1,N
1505413315.8,286046994.1,N
1505413335.6,286047007.4,N
1505413355.4,286047013.8,N
1505413375.3,286047018.8,N
1505413395.1,286047015.0,N
1505413396.0,286047015.0,N
1505413415.8,286047008.6,N
1505413435.6,286047006.4,N
1505413455.5,286047004.5,N
1505413475.3,286046997.1,N
1505413495.1,286046993.1,N
1505413515.9,286046987.7,N
1505413535.7,286046983.1,N
1505413555.5,286046977.3,N
1505413575.4,286046978.9,N
1505413595.2,286046981.3,N
1505413615.0,286046982.2,N
1505413615.9,286046982.2,N
1505413635.8,286046978.0,N
1505413655.6,286046981.9,N
1505413675.4,286046981.6,N
1505413695.3,286046979.1,N
1505413715.1,286046983.5,N
1505413716.0,286046983.5,N
1505413735.8,286046982.7,N
1505413755.7,286046981.7,N
1505413775.5,286046981.0,N
1505413795.3,286046977.2,N
1505413815.1,286046975.2,N
1505413835.9,286046979.4,N
1505413855.7,286046984.1,N
1505413875.5,286046984.3,N
1505413895.4,286046985.9,N
1505413915.2,286046987.8,N
1505413935.0,286046985.0,N
1505413935.9,286046985.0,N
1505413955.8,286046978.2,N
1505413975.6,286046975.1,P
1505413995.4,286046989.5,N
1505414015.3,286046989.4,N
1505414035.1,286046996.3,N
1505414055.8,286046997.2,N
1505414075.7,286046995.2,N
1505414095.5,286046993.4,N
1505414115.3,286046995.5,N
1505414135.2,286047005.1,N
1505414155.9,286047015.5,N
1505414175.7,286047015.9,N
1505414195.6,286047014.9,N
1505414215.4,286047012.7,N
1505414235.2,286047011.1,N
1505414255.0,286047007.6,N
1505414255.9,286047007.6,N
1505414275.8,286047002.7,N
1505414295.6,286046999.1,N
1505414315.4,286047000.9,N
1505414335.3,286046997.1,N
1505414355.1,286047002.7,N
1505414375.8,286047008.7,N
1505414395.7,286047010.5,N
1505414415.5,286047011.7,N
1505414435.3,286047009.3,N
1505414455.2,286047005.5,N
1505414475.9,286047000.4,N
1505414495.7,286047005.4,N
1505414515.6,286047005.4,N
1505414535.4,286046998.2,N
1505414555.2,286046997.3,N
1505414575.0,286046993.5,N
1505414575.9,286046993.5,N
1505414595.8,286046988.6,N
1505414615.6,286046990.8,N
1505414635.4,286046989.6,N
1505414655.3,286046990.5,N
1505414675.1,286046995.7,N
1505414695.8,286046997.5,N
1505414715.7,286046997.3,N
1505414735.5,286046999.0,N
1505414755.3,286046995.3,N
1505414775.2,286046997.8,N
1505414795.9,286046998.7,N
1505414815.7,286047003.9,N
1505414835.6,286047006.0,N
1505414855.4,286046998.6,N
1505414875.2,286046997.2,N
1505414895.1,286047001.4,N
1505414896.0,286047001.4,N
1505414915.8,286047007.4,N
1505414935.6,286047006.8,N
1505414955.4,286047004.6,N
1505414975.3,286046998.8,N
1505414995.1,286046994.4,N
1505415015.8,286046994.0,N
1505415035.7,286046991.1,N
1505415055.5,286046984.0,P
1505415075.3,286046987.5,N
1505415095.2,286046987.9,N
1505415115.0,286046994.8,N
1505415115.9,286046994.8,N
1505415135.7,286047005.2,N
1505415155.6,286047009.0,N
1505415175.4,286047008.8,N
1505415195.2,286047007.9,N
1505415215.1,286047008.0,N
1505415216.0,286047008.0,N
1505415235.8,286047000.3,N
1505415255.6,286046993.9,N
1505415275.5,286046988.6,N
1505415295.3,286046989.4,N
1505415315.1,286046990.7,N
1505415335.9,286046989.8,N
1505415355.7,286046986.0,N
1505415375.5,286046991.4,N
1505415395.3,286046994.2,N
1505415415.2,286046995.0,N
1505415435.0,286046999.0,N
1505415435.9,286046999.0,N
1505415455.7,286046994.9,N
1505415475.6,286046991.0,N
1505415495.4,286046991.7,N
1505415515.2,286046996.0,N
1505415535.1,286046991.8,N
1505415536.0,286046991.8,N
1505415555.8,286046994.9,N
1505415575.6,286046998.3,N
1505415595.5,286046999.9,N
